Regional Weather Roundup
Issued by NWS Green Bay, WI

Home | Current Version | Previous Version | Graphics & Text | Print | Product List | Glossary Off
Versions: 1 2 3 4 5 6 7 8 9 10 11 12 13 14 15 16 17 18 19 20 21 22 23 24 25 26 27 28 29 30 31 32 33 34 35 36 37 38 39 40 41 42 43 44 45 46 47 48 49 50

141
ASUS43 KGRB 102100
RWRGRB

NORTH-CENTRAL AND NORTHEAST WISCONSIN REGIONAL WEATHER ROUNDUP
NATIONAL WEATHER SERVICE GREEN BAY WI
300 PM CST WED FEB 10 2016

WIZ005-009-010>012-018-019-102200-
NORTH CENTRAL WISCONSIN

CITY           SKY/WX    TMP DP  RH WIND       PRES   REMARKS
IRONWOOD       CLOUDY     9   0  66 N10       30.03R WCI  -6
MANITOWISH WTR NOT AVBL
ARBOR VITAE    NOT AVBL
EAGLE RIVER    NOT AVBL
LAND O LAKES   NOT AVBL
RHINELANDER    MOSUNNY    9  -5  53 N8        29.97R WCI  -3
PHILLIPS       NOT AVBL
ANTIGO         NOT AVBL
TOMAHAWK       NOT AVBL
MERRILL        NOT AVBL
$$

WIZ013-073-102200-
NORTHEAST WISCONSIN

CITY           SKY/WX    TMP DP  RH WIND       PRES   REMARKS
IRON MOUNTAIN  CLOUDY    10  -3  55 NW21G28   29.97R WCI  -9
MARINETTE      MOSUNNY   14  -6  41 N12G18    30.00R WCI   0
$$

WIZ017-030-035>037-045-102200-
CENTRAL WISCONSIN

CITY           SKY/WX    TMP DP  RH WIND       PRES   REMARKS
MEDFORD        NOT AVBL
WAUSAU         SUNNY     14  -4  44 NW9       29.98S WCI   2
MOSINEE        SUNNY     10  -2  56 N6        30.00R WCI   1
MARSHFIELD     SUNNY     11  -4  51 N14       30.00S WCI  -5
WISC RAPIDS    SUNNY     12  -3  51 N7G16     30.04R WCI   1
STEVENS POINT  NOT AVBL
WAUPACA        NOT AVBL
SHAWANO        NOT AVBL
CLINTONVILLE   NOT AVBL
WAUTOMA        NOT AVBL
$$

WIZ038-039-048-051-102200-
FOX VALLEY

CITY           SKY/WX    TMP DP  RH WIND       PRES   REMARKS
NWS GREEN BAY  SUNNY     13  -5  44 NW13      30.02R WCI  -2
APPLETON       MOSUNNY   12  -8  40 NW10      29.99S WCI  -1
OSHKOSH        MOSUNNY   13  -4  46 NW10      30.01R WCI   0
FOND DU LAC    MOSUNNY   13  -3  49 N8        30.02R WCI   2
$$

WIZ022-050-052-102200-
EAST CENTRAL WISCONSIN

CITY           SKY/WX    TMP DP  RH WIND       PRES   REMARKS
EPHRAIM        NOT AVBL
STURGEON BAY   MOSUNNY   14  -6  41 N16       30.00S WCI  -2
MANITOWOC      NOT AVBL
SHEBOYGAN      SUNNY     12  -4  48 N14       30.01R WCI  -3
$$

LMZ563-521-522-541>543-102200-
LAKESHORE

STATION/POSITION TIME  TEMP    WIND        PRES    VSBY  WAVE
                       AIR SEA DIR/SP/G                  HT/PER
                 (UTC) (F)     (DEG/KT/KT) (MB)    (MI)  (FT/S)
SHEBOYGAN LKSHOR 2000   11     320/ 15/ 17 1017.8R
KEWAUNEE LKSHORE 2000   13     310/ 12/ 16 1014.9R
ALGOMA MARINA    2011          340/ 11/ 15   N/A
CHAMBERS ISLAND  2000   16     300/ 13/ 23 1015.6R
MENOMINEE LKSHOR 2000   13     330/ 17     1014.5R
$$




USA.gov is the U.S. government's official web portal to all federal, state and local government web resources and services.